GW5652 Weather Reports


time (UTC)temp
C
wind
direction
speed
KPH
gust
KPH
rain 1hr
cm
rain 24hr
cm
rain mn
cm
humidity
%
barometer
mb
20260503195713 27 9 6.4 11.3 0.00 0.00 0.00 49 1011.2
20260503195210 26 311 4.8 14.5 0.00 0.00 0.00 51 1011.3
20260503194707 26 284 0.0 9.7 0.00 0.00 0.00 52 1011.5
20260503194202 26 322 3.2 8.0 0.00 0.00 0.00 50 1011.5
20260503193659 26 30 4.8 8.0 0.00 0.00 0.00 50 1011.7
20260503193155 26 9 0.0 8.0 0.00 0.00 0.00 53 1011.6
20260503192650 26 338 6.4 11.3 0.00 0.00 0.00 52 1011.5
20260503192146 26 311 4.8 9.7 0.00 0.00 0.00 54 1011.5
20260503191643 25 65 1.6 8.0 0.00 0.00 0.00 53 1011.7
20260503191140 24 316 6.4 9.7 0.00 0.00 0.00 57 1011.5
20260503190637 24 346 8.0 9.7 0.00 0.00 0.00 56 1011.8
20260503190134 23 330 4.8 8.0 0.00 0.00 0.00 56 1011.9
20260503185631 23 329 6.4 11.3 0.00 0.00 0.00 56 1012.0
20260503185126 23 311 4.8 9.7 0.00 0.00 0.00 58 1011.9
20260503184621 23 342 8.0 11.3 0.00 0.00 0.00 58 1012.0
20260503184118 23 341 6.4 11.3 0.00 0.00 0.00 57 1012.0
20260503183615 23 335 6.4 12.9 0.00 0.00 0.00 58 1012.1
20260503183112 23 322 3.2 9.7 0.00 0.00 0.00 57 1012.1
20260503182610 23 342 8.0 12.9 0.00 0.00 0.00 57 1012.2
20260503182108 22 330 9.7 11.3 0.00 0.00 0.00 60 1012.2
20260503181604 22 338 6.4 12.9 0.00 0.00 0.00 62 1012.2
20260503181101 22 324 4.8 11.3 0.00 0.00 0.00 62 1012.2
20260503180558 22 343 8.0 11.3 0.00 0.00 0.00 63 1012.1
20260503180056 21 302 4.8 11.3 0.00 0.00 0.00 65 1012.1
20260503175553 22 356 3.2 8.0 0.00 0.00 0.00 62 1012.2
20260503175050 23 349 4.8 6.4 0.00 0.00 0.00 60 1012.2
20260503174547 21 75 1.6 8.0 0.00 0.00 0.00 63 1012.2
20260503174043 21 54 6.4 11.3 0.00 0.00 0.00 62 1012.5
20260503173538 21 356 4.8 14.5 0.00 0.00 0.00 61 1012.3
20260503173035 21 346 6.4 8.0 0.00 0.00 0.00 61 1012.4
20260503172533 21 74 3.2 8.0 0.00 0.00 0.00 60 1012.2
20260503172029 20 359 3.2 12.9 0.00 0.00 0.00 65 1012.2
20260503171526 21 11 3.2 6.4 0.00 0.00 0.00 62 1012.3
20260503171023 22 55 3.2 8.0 0.00 0.00 0.00 60 1012.4
20260503170519 22 324 1.6 4.8 0.00 0.00 0.00 60 1012.3
20260503150912 14 356 3.2 4.8 0.00 0.00 0.00 87 1012.5
20260503150408 14 33 0.0 3.2 0.00 0.00 0.00 87 1012.4
20260503131302 11 85 4.8 4.8 0.00 0.00 0.00 92 1012.3
20260503130759 11 69 6.4 8.0 0.00 0.00 0.00 91 1012.0
20260503130256 11 133 3.2 6.4 0.00 0.00 0.00 91 1012.1
20260503110650 12 329 0.0 3.2 0.00 0.00 0.00 90 1012.3
20260503110147 12 350 3.2 3.2 0.00 0.00 0.00 91 1012.2
20260503100114 12 331 3.2 6.4 0.00 0.00 0.00 89 1012.5
20260503081503 13 333 1.6 4.8 0.00 0.00 0.00 87 1012.8
20260503081000 13 355 3.2 6.4 0.00 0.00 0.00 85 1013.1
20260503080456 14 329 3.2 4.8 0.00 0.00 0.00 85 1012.9
20260503072933 14 274 1.6 3.2 0.00 0.00 0.00 84 1013.2
20260503072430 14 290 0.0 3.2 0.00 0.00 0.00 84 1013.0
20260503071928 14 285 3.2 4.8 0.00 0.00 0.00 83 1013.2
20260503071424 14 260 3.2 6.4 0.00 0.00 0.00 83 1013.0
20260503070920 14 154 0.0 6.4 0.00 0.00 0.00 83 1013.1
20260503070418 14 268 3.2 4.8 0.00 0.00 0.00 83 1013.0
20260503060344 15 75 3.2 4.8 0.00 0.00 0.00 82 1013.1
20260503054831 15 75 4.8 4.8 0.00 0.00 0.00 82 1013.3
20260503054327 15 61 3.2 4.8 0.00 0.00 0.00 81 1013.1
20260503053825 15 76 4.8 6.4 0.00 0.00 0.00 79 1013.2
20260503053323 16 68 3.2 4.8 0.00 0.00 0.00 78 1013.2
20260503052819 16 336 0.0 3.2 0.00 0.00 0.00 77 1013.2
20260503052316 16 58 1.6 4.8 0.00 0.00 0.00 77 1013.1
20260503051812 16 355 0.0 4.8 0.00 0.00 0.00 77 1013.0
20260503051309 16 299 3.2 4.8 0.00 0.00 0.00 77 1013.3
20260503050806 16 338 3.2 6.4 0.00 0.00 0.00 76 1013.2
20260503050302 16 69 4.8 6.4 0.00 0.00 0.00 76 1013.2
20260503045800 16 271 3.2 6.4 0.00 0.00 0.00 77 1013.1
20260503045257 16 293 3.2 4.8 0.00 0.00 0.00 78 1012.8
20260503044753 16 290 4.8 6.4 0.00 0.00 0.00 76 1013.1
20260503044250 16 293 8.0 8.0 0.00 0.00 0.00 76 1013.1
20260503043748 16 302 8.0 11.3 0.00 0.00 0.00 76 1013.2
20260503043245 17 314 9.7 12.9 0.00 0.00 0.00 75 1013.1
20260503042740 16 295 3.2 9.7 0.00 0.00 0.00 77 1013.1
20260503042237 16 320 6.4 9.7 0.00 0.00 0.00 76 1013.2
20260503041733 16 301 4.8 9.7 0.00 0.00 0.00 77 1013.2
20260503041231 17 314 9.7 11.3 0.00 0.00 0.00 76 1013.1
20260503040729 17 297 6.4 11.3 0.00 0.00 0.00 75 1013.0
20260503040226 17 317 6.4 12.9 0.00 0.00 0.00 76 1012.9
20260503035723 16 297 8.0 14.5 0.00 0.00 0.00 77 1012.7
20260503035221 16 306 6.4 11.3 0.00 0.00 0.00 78 1012.6
20260503034718 16 313 4.8 12.9 0.00 0.00 0.00 79 1012.7
20260503034214 16 311 6.4 11.3 0.00 0.00 0.00 79 1012.8
20260503033712 16 298 12.9 14.5 0.00 0.00 0.00 79 1012.5
20260503033209 16 311 8.0 14.5 0.00 0.00 0.00 79 1012.5
20260503032708 16 308 6.4 12.9 0.00 0.00 0.00 78 1012.4
20260503032206 17 308 8.0 12.9 0.00 0.00 0.00 76 1012.6
20260503031702 17 348 3.2 12.9 0.00 0.00 0.00 75 1012.4
20260503031200 16 324 4.8 9.7 0.00 0.00 0.00 75 1012.1
20260503030656 16 304 6.4 17.7 0.00 0.00 0.00 75 1012.2
20260503030153 17 309 14.5 14.5 0.00 0.00 0.00 74 1012.3
20260503025650 17 297 11.3 14.5 0.00 0.00 0.00 74 1012.2
20260503025148 17 293 6.4 12.9 0.00 0.00 0.00 74 1012.3
20260503024644 17 317 6.4 9.7 0.00 0.00 0.00 75 1012.3
20260503024142 17 315 0.0 8.0 0.00 0.00 0.00 74 1012.4
20260503023639 17 305 4.8 6.4 0.00 0.00 0.00 73 1012.6
20260503023136 17 315 3.2 3.2 0.00 0.00 0.00 73 1012.7
20260503022632 17 298 0.0 3.2 0.00 0.00 0.00 72 1012.9
20260503022131 17 296 0.0 6.4 0.00 0.00 0.00 74 1012.7
20260503021628 18 240 0.0 1.6 0.00 0.00 0.00 71 1012.8
20260503021125 18 256 0.0 3.2 0.00 0.00 0.00 72 1013.0
20260503020622 17 125 0.0 11.3 0.00 0.00 0.00 71 1013.5
20260503020120 18 156 8.0 17.7 0.00 0.00 0.00 72 1013.6
20260503015616 18 145 11.3 17.7 0.00 0.00 0.00 73 1013.6
20260503015113 18 155 9.7 17.7 0.00 0.00 0.00 73 1013.3
20260503014609 18 143 8.0 17.7 0.00 0.00 0.00 71 1013.3
20260503014107 18 130 8.0 14.5 0.00 0.00 0.00 70 1013.1
20260503013604 18 126 6.4 11.3 0.00 0.00 0.00 68 1013.1
20260503013102 18 156 6.4 8.0 0.00 0.00 0.00 67 1012.8
20260503012559 19 164 4.8 8.0 0.00 0.00 0.00 68 1012.8
20260503012055 19 156 3.2 6.4 0.00 0.00 0.00 68 1012.8
20260503011552 19 140 4.8 11.3 0.00 0.00 0.00 67 1012.7
20260503011049 20 130 4.8 6.4 0.00 0.00 0.00 65 1012.8
20260503010545 20 162 4.8 4.8 0.00 0.00 0.00 64 1012.7
20260503010043 19 141 4.8 6.4 0.00 0.00 0.00 64 1012.7
20260503005540 19 147 0.0 4.8 0.00 0.00 0.00 64 1012.8
20260503005037 20 164 1.6 4.8 0.00 0.00 0.00 64 1012.8
20260503004533 20 77 1.6 8.0 0.00 0.00 0.00 65 1012.8
20260503004032 19 51 4.8 9.7 0.00 0.00 0.00 66 1012.7
20260503003528 20 97 4.8 6.4 0.00 0.00 0.00 65 1012.7
20260503003025 20 113 1.6 8.0 0.00 0.00 0.00 62 1012.6
20260503002522 20 5 1.6 4.8 0.00 0.00 0.00 61 1012.6
20260503002019 21 77 3.2 6.4 0.00 0.00 0.00 61 1012.5
20260503001515 21 25 0.0 8.0 0.00 0.00 0.00 60 1012.6
20260503001013 20 52 0.0 8.0 0.00 0.00 0.00 61 1012.5
20260503000510 20 82 6.4 11.3 0.00 0.00 0.00 61 1012.5
20260503000007 21 66 6.4 11.3 0.00 0.00 0.00 60 1012.3
20260502235504 20 316 6.4 9.7 0.00 0.00 0.00 62 1012.8
20260502235002 20 346 11.3 14.5 0.00 0.00 0.00 62 1012.5
20260502234458 20 343 8.0 9.7 0.00 0.00 0.00 61 1012.7
20260502233956 20 346 8.0 9.7 0.00 0.00 0.00 62 1012.7
20260502233455 20 316 6.4 12.9 0.00 0.00 0.00 63 1012.9
20260502232953 18 341 6.4 11.3 0.00 0.00 0.00 64 1013.0
20260502232449 19 292 3.2 8.0 0.00 0.00 0.00 63 1013.2
20260502231946 19 305 1.6 11.3 0.00 0.00 0.00 64 1012.9
20260502231443 21 308 8.0 9.7 0.00 0.00 0.00 60 1013.0
20260502230941 20 126 0.0 6.4 0.00 0.00 0.00 62 1013.1
20260502230439 18 62 8.0 8.0 0.00 0.00 0.00 65 1013.3
20260502225937 18 99 4.8 9.7 0.00 0.00 0.00 64 1013.4
20260502225432 19 65 4.8 8.0 0.00 0.00 0.00 64 1013.5
20260502224930 19 89 0.0 6.4 0.00 0.00 0.00 62 1013.6
20260502224426 19 116 0.0 4.8 0.00 0.00 0.00 63 1013.5
20260502223923 18 343 4.8 8.0 0.00 0.00 0.00 65 1013.9
20260502223421 18 267 0.0 4.8 0.00 0.00 0.00 67 1013.9
20260502222919 18 316 8.0 9.7 0.00 0.00 0.00 65 1014.1
20260502222416 18 97 1.6 4.8 0.00 0.00 0.00 63 1013.8
20260502221916 18 311 6.4 11.3 0.00 0.00 0.00 65 1014.2
20260502221413 18 336 3.2 12.9 0.00 0.00 0.00 67 1014.0
20260502220910 18 336 8.0 14.5 0.00 0.00 0.00 65 1014.1
20260502220406 18 7 0.0 8.0 0.00 0.00 0.00 64 1014.2
20260502215903 18 48 8.0 8.0 0.00 0.00 0.00 63 1014.2
20260502215400 18 333 3.2 9.7 0.00 0.00 0.00 65 1014.2
20260502214857 18 324 1.6 6.4 0.00 0.00 0.00 65 1014.4
20260502214353 17 297 4.8 8.0 0.00 0.00 0.00 68 1014.5
20260502213851 17 347 9.7 14.5 0.00 0.00 0.00 68 1014.3
20260502213348 17 338 9.7 17.7 0.00 0.00 0.00 66 1014.4
20260502212847 17 344 11.3 14.5 0.00 0.00 0.00 65 1014.4
20260502212345 16 316 4.8 9.7 0.00 0.00 0.00 68 1014.5
20260502211842 16 339 11.3 12.9 0.00 0.00 0.00 69 1014.5
20260502211337 17 357 11.3 12.9 0.00 0.00 0.00 66 1014.7
20260502210835 16 347 8.0 11.3 0.00 0.00 0.00 69 1014.9
20260502210332 16 310 14.5 17.7 0.00 0.00 0.00 70 1014.6
20260502205829 16 292 8.0 16.1 0.00 0.00 0.00 69 1014.8
20260502205325 16 199 0.0 11.3 0.00 0.00 0.00 66 1014.9
20260502204822 17 86 8.0 12.9 0.00 0.00 0.00 66 1015.1
20260502204319 16 327 6.4 11.3 0.00 0.00 0.00 68 1015.0
20260502203817 16 30 3.2 8.0 0.00 0.00 0.00 67 1015.0
20260502203315 15 344 4.8 9.7 0.00 0.00 0.00 71 1015.1
20260502202814 15 345 11.3 12.9 0.00 0.00 0.00 72 1015.2
20260502202313 15 343 4.8 9.7 0.00 0.00 0.00 74 1015.2
20260502201810 15 306 8.0 14.5 0.00 0.00 0.00 72 1015.5
20260502201306 15 285 6.4 11.3 0.00 0.00 0.00 72 1015.7
20260502200802 15 67 4.8 14.5 0.00 0.00 0.00 69 1015.5
20260502200258 15 1 3.2 17.7 0.00 0.00 0.00 70 1015.6